Change the Weather History Date:

Friday, October 12, 2012

  Actual Average Record
Temperature  
Mean Temperature 40 °F -  
Max Temperature 45 °F - - ()
Min Temperature 35 °F - - ()
Degree Days  
Heating Degree Days 25    
Moisture  
Dew Point 30 °F    
Average Humidity 62    
Maximum Humidity 75    
Minimum Humidity 38    
Precipitation  
Precipitation 0.00 in - - ()
Sea Level Pressure  
Sea Level Pressure 30.29 in    
Wind  
Wind Speed 9 mph ()    
Max Wind Speed 20 mph    
Max Gust Speed 29 mph    
T = Trace of Precipitation, MM = Missing Value Source: Averaged Metar Reports

Daily Weather History Graph

Daily Weather History Graph

Search for Another Location

Airport or City:

Trip Planner

Search our weather history database for the weather conditions in past years. The results will help you decide how hot, cold, wet, or windy it might be!

Date:

Astronomy

Oct. 12, 2012 Rise Set
Actual Time 7:32 AM EDT 6:40 PM EDT
Civil Twilight 7:03 AM EDT 7:10 PM EDT
Nautical Twilight 6:29 AM EDT 7:43 PM EDT
Astronomical Twilight 5:56 AM EDT 8:17 PM EDT
Moon 4:07 AM EDT (10/12) 4:54 PM EDT (10/12)
Length of Visible Light 12h 06m
Length of Day
11h 08m
Waning Crescent, 11% of the Moon is Illuminated
Oct 12
Waning Crescent
Oct 15
New
Oct 21
First Quarter
Oct 29
Full
Nov 6
Last Quarter

Hourly Weather History & Observations

Time (EDT) Temp. Windchill Dew Point Humidity Pressure Visibility Wind Dir Wind Speed Gust Speed Precip Events Conditions
12:00 AM 44.6 °F 38.4 °F 34.7 °F 68% 30.01 in - WNW 12.7 mph 19.6 mph N/A   Unknown
1:00 AM 44.1 °F 39.0 °F 33.6 °F 67% 30.03 in - WNW 9.2 mph - N/A   Unknown
2:00 AM 42 °F - 34 °F 63% 30.05 in - West 6.9 mph - -  
2:00 AM 42.4 °F 38.1 °F 33.6 °F 71% 30.05 in - West 6.9 mph - N/A   Unknown
3:00 AM 43.0 °F 37.7 °F 34.0 °F 71% 30.07 in - WNW 9.2 mph 20.7 mph N/A   Unknown
4:00 AM 44.4 °F 36.4 °F 36.1 °F 73% 30.09 in - North 19.6 mph 28.8 mph N/A   Unknown
5:00 AM 41.7 °F 33.1 °F 33.1 °F 71% 30.15 in - North 18.4 mph 25.3 mph N/A   Unknown
6:00 AM 41.5 °F 33.2 °F 31.5 °F 67% 30.19 in - North 17.3 mph 26.5 mph N/A   Unknown
7:00 AM 40.8 °F 32.6 °F 31.1 °F 68% 30.23 in - North 16.1 mph 23.0 mph N/A   Unknown
8:00 AM 40 °F - 29 °F 55% 30.27 in - North 16.1 mph - -  
9:00 AM 40.5 °F 32.5 °F 28.8 °F 63% 30.32 in - North 15.0 mph 20.7 mph N/A   Unknown
10:00 AM 41.2 °F 33.7 °F 27.0 °F 57% 30.35 in - North 13.8 mph 19.6 mph N/A   Unknown
12:00 PM 43.3 °F 37.2 °F 29.5 °F 58% 30.40 in - North 11.5 mph 21.9 mph N/A   Unknown
1:00 PM 43.9 °F 37.9 °F 27.3 °F 52% 30.40 in - North 11.5 mph 19.6 mph N/A   Unknown
2:00 PM 46 °F - 29 °F 38% 30.40 in - NNW 11.5 mph - -  
3:00 PM 45.1 °F 39.9 °F 27.9 °F 51% 30.39 in - NNW 10.4 mph - N/A   Unknown
4:00 PM 45.1 °F 41.4 °F 27.7 °F 50% 30.39 in - NW 6.9 mph - N/A   Unknown
5:00 PM 44.4 °F 39.0 °F 24.8 °F 46% 30.40 in - NW 10.4 mph - N/A   Unknown
6:00 PM 43.5 °F 40.9 °F 25.7 °F 50% 30.41 in - NW 4.6 mph - N/A   Unknown
7:00 PM 39.7 °F - 27.1 °F 61% 30.41 in - WSW 2.3 mph - N/A   Unknown
8:00 PM 38 °F - 29 °F 60% 30.42 in - SSW 3.5 mph - -  
8:00 PM 37.9 °F 35.5 °F 29.1 °F 71% 30.42 in - SSW 3.5 mph - N/A   Unknown
9:00 PM 36.9 °F 34.3 °F 28.6 °F 72% 30.42 in - SW 3.5 mph - N/A   Unknown
10:00 PM 35.8 °F 33.0 °F 27.1 °F 71% 30.43 in - SSW 3.5 mph - N/A   Unknown
11:00 PM 35.1 °F 32.2 °F 27.9 °F 75% 30.43 in - SSW 3.5 mph - N/A   Unknown